This demonstration page uses our WeatherBlox Daily Observations layout. Learn more.

Left ArrowRight Arrow

Hourly Observations for February 19, 2015

Temp ( °F °C ) Dew Point ( °F °C ) Humidity (%) Winds ( mph kmh ) Pressure ( in mb ) Visibility ( mi km ) Precip ( " mm )
12:53 am 00:53 Clear 2 -16.7 -8 -22.2 63 63 W 7 11 30.26 1025 10 16.0934 N/A
1:53 am 01:53 Clear -1 -18.3 -9 -22.8 68 68 W 6 9 30.26 1025 10 16.0934 N/A
2:53 am 02:53 Clear -2 -18.9 -9 -22.8 72 72 W 5 7 30.27 1025 10 16.0934 N/A
3:53 am 03:53 Clear -3 -19.4 -10 -23.3 71 71 W 7 11 30.27 1025 10 16.0934 N/A
4:53 am 04:53 Clear -4 -20 -10 -23.3 75 75 W 8 13 30.27 1025 10 16.0934 N/A
5:53 am 05:53 Clear -5 -20.6 -11 -23.9 75 75 W 6 9 30.29 1026 10 16.0934 N/A
6:53 am 06:53 Clear with Light Snow -6 -21.1 -11 -23.9 78 78 W 6 9 30.31 1027 9 14.48406 N/A
7:53 am 07:53 Sunny -6 -21.1 -10 -23.3 83 83 WSW 6 9 30.33 1027 10 16.0934 N/A
8:53 am 08:53 Sunny -2 -18.9 -9 -22.8 72 72 W 8 13 30.36 1028 10 16.0934 N/A
9:53 am 09:53 Sunny 2 -16.7 -9 -22.8 59 59 VRB 7 11 30.37 1028 10 16.0934 N/A
10:53 am 10:53 Sunny 4 -15.6 -9 -22.8 54 54 WNW 12 19 30.37 1029 10 16.0934 N/A
11:53 am 11:53 Sunny 6 -14.4 -9 -22.8 49 49 W 8 13 30.39 1029 10 16.0934 N/A
12:53 pm 12:53 Mostly Sunny 7 -13.9 -8 -22.2 50 50 W 13 20 30.38 1029 10 16.0934 N/A
1:53 pm 13:53 Sunny 8 -13.3 -9 -22.8 45 45 W 12 19 30.38 1029 10 16.0934 N/A
2:53 pm 14:53 Sunny 8 -13.3 -9 -22.8 45 45 WNW 15 24 30.37 1029 10 16.0934 N/A
3:53 pm 15:53 Mostly Cloudy 9 -12.8 -8 -22.2 46 46 W 10 17 30.38 1029 10 16.0934 N/A
4:53 pm 16:53 Mostly Sunny 7 -13.9 -10 -23.3 45 45 W 8 13 30.39 1029 10 16.0934 N/A
5:53 pm 17:53 Mostly Cloudy 6 -14.4 -10 -23.3 47 47 W 8 13 30.4 1029 10 16.0934 N/A
6:53 pm 18:53 Clear 3 -16.1 -9 -22.8 57 57 W 7 11 30.41 1030 10 16.0934 N/A
7:53 pm 19:53 Partly Cloudy 1 -17.2 -10 -23.3 59 59 WSW 5 7 30.42 1030 10 16.0934 N/A
8:53 pm 20:53 Clear -1 -18.3 -11 -23.9 62 62 W 5 7 30.41 1030 10 16.0934 N/A
9:53 pm 21:53 Clear with Light Snow -4 -20 -12 -24.4 68 68 N N/A 30.42 1030 9 14.48406 N/A
10:53 pm 22:53 Clear -10 -23.3 -15 -26.1 78 78 N N/A 30.44 1031 10 16.0934 N/A
11:53 pm 23:53 Clear -11 -23.9 -17 -27.2 74 74 N N/A 30.45 1031 10 16.0934 N/A

Powered by AerisWeather